Location: Mason Neck State Park
(38.6428°N, 77.1981°W)
Time: 21:26:48
(UTC-05:00)

Daily predictions for brighter satellites

Satellite Brightness Start Highest point End
(mag) Time Altitude Azimuth Time Altitude Azimuth Time Altitude Azimuth
Meteor 1-21 Rocket 4.4 17:40:35 10° S 17:46:27 82° E 17:52:24 10° N
Okean 3 Rocket 3.7 17:43:19 10° S 17:47:45 56° E 17:52:11 10° NNE
SPOT 3 Rocket 4.4 17:43:56 10° ESE 17:48:12 27° ENE 17:52:29 10° N
USA 161 4.3 17:48:30 10° WNW 17:48:44 10° WNW 17:48:58 10° WNW
Meteor 2-10 4.0 17:43:56 10° N 17:48:57 62° E 17:54:01 10° SSE
Cosmos 2341 Rocket 4.0 17:43:47 10° N 17:50:05 85° E 17:56:24 10° S
Cosmos 1943 3.8 17:44:47 10° SW 17:50:20 61° WNW 17:55:54 10° NNE
IRS-1A Rocket 4.3 17:46:01 10° SSE 17:51:25 60° ENE 17:56:56 10° N
SKYMED 2 3.8 17:51:36 10° NNE 17:55:49 48° E 18:00:00 10° S
Cosmos 1455 4.1 17:57:40 10° NE 17:58:47 11° ENE 17:59:05 11° ENE
Tiangong 1 1.5 17:58:01 10° WNW 18:00:17 31° N 18:02:00 14° ENE
CZ-2C R/B 3.7 17:55:57 10° NNE 18:00:42 83° ESE 18:05:18 10° SSW
Cosmos 1328 4.2 17:57:25 10° SSE 18:01:12 42° E 18:05:01 10° NNE
YAOGAN 1 2.5 17:57:46 10° SSE 18:02:03 69° ENE 18:06:22 10° N
Meteor 2-16 Rocket 4.4 17:56:14 10° N 18:02:22 79° E 18:08:29 10° S
Cosmos 1400 Rocket 3.1 17:59:04 10° SSW 18:03:05 73° W 18:07:12 10° N
Cosmos 44 3.2 18:02:40 10° SSW 18:06:50 53° ESE 18:11:08 10° NE
MOS 1 4.3 18:04:47 10° SSE 18:10:17 57° ENE 18:15:49 10° N
Meteor 2-2 Rocket 4.4 18:04:56 10° N 18:10:28 48° ENE 18:15:54 10° SSE
Cosmos 2181 Rocket 4.4 18:05:29 10° SSW 18:11:55 74° W 18:18:22 10° N
OAO 3 Rocket 3.6 18:07:41 10° WSW 18:12:16 56° S 18:16:33 12° ESE
CZ-4 R/B 4.4 18:08:42 10° SSE 18:12:47 88° E 18:16:57 10° NNW
EO 1 Del DPAF 3.6 18:10:04 10° NNE 18:13:45 43° E 18:17:23 10° S
ATLAS 2AS CENTAUR R/B 3.6 18:09:10 10° NW 18:16:50 58° WSW 18:23:50 10° SSE
Cosmos 968 Rocket 3.7 18:13:35 10° NNW 18:18:44 76° WSW 18:23:49 10° S
Cosmos 2221 3.6 18:16:28 10° NNW 18:20:41 48° W 18:24:54 10° SSW
Landsat 4 3.6 18:18:05 10° NNE 18:21:50 81° E 18:25:32 10° S
Cosmos 1626 2.2 18:18:37 10° S 18:22:13 52° E 18:25:51 10° NNE
MTI 3.8 18:22:05 10° N 18:25:18 81° W 18:28:29 10° SSW
Cosmos 2098 Rocket 4.1 18:21:07 10° N 18:26:12 44° E 18:32:23 10° SSE
Cosmos 1703 3.8 18:23:04 10° SSE 18:26:43 37° E 18:29:54 13° NNE
Cosmos 2058 3.6 18:25:47 10° SSE 18:29:30 32° E 18:31:53 18° NE
Cosmos 2369 Rocket 4.1 18:25:57 10° NW 18:30:59 33° WSW 18:36:01 10° SSW
SL-8 Rocket 4.3 18:25:23 10° NNW 18:31:32 71° W 18:37:43 10° S
Cosmos 1408 Rocket 3.4 18:30:56 10° S 18:35:13 88° E 18:39:33 10° N
Cosmos 1656 Rocket 3.5 18:29:49 10° NNW 18:35:17 69° ENE 18:40:48 10° SSE
NOSS 3 (A) 4.5 18:33:10 10° SSW 18:35:52 55° ESE 18:36:28 43° ENE
NOAA 12 4.0 18:30:49 10° SSE 18:36:03 84° ENE 18:41:19 10° NNW
Cosmos 1515 Rocket 4.2 18:32:28 10° NNE 18:36:24 32° ENE 18:40:16 10° SE
Cosmos 1300 3.9 18:32:50 10° NNW 18:36:30 45° W 18:40:09 10° SSW
Cosmos 44 Rocket 3.1 18:31:55 10° SSW 18:36:34 87° ESE 18:40:13 17° NNE
Cosmos 2218 Rocket 4.1 18:30:25 10° N 18:36:35 78° W 18:42:42 10° S
NOSS 3-4 (A) 3.8 18:32:37 10° NNW 18:39:39 65° NE 18:47:11 10° SE
NOSS 3-4 (C) 3.8 18:32:43 10° NNW 18:39:46 64° NE 18:47:18 10° SE
ERS-2 2.0 18:37:07 10° SSE 18:40:44 64° ENE 18:44:25 10° N
Cosmos 1943 Rocket 3.6 18:37:05 10° NW 18:42:17 41° WSW 18:47:25 10° S
Cosmos 2151 3.2 18:38:55 10° SSE 18:42:57 44° E 18:45:09 24° NE
DMSP B5D1-3 4.4 18:38:11 10° NNE 18:43:18 87° ESE 18:48:24 10° SSW
COSMO-SKYMED 1 3.6 18:39:40 10° N 18:43:50 46° WNW 18:47:59 10° SW
Cosmos 1500 Rocket 3.9 18:43:40 10° SSE 18:47:52 43° E 18:49:28 30° NE
CZ-4 R/B 4.2 18:45:41 10° SSW 18:48:59 22° W 18:52:20 10° NW
Cosmos 2228 Rocket 3.1 18:49:58 10° N 18:54:29 58° E 18:58:59 10° SSE
Lacrosse 5 3.7 18:52:09 10° SSE 18:53:52 15° SE 18:53:52 15° SE
SL-24 R/B - RUBIN 2 3.5 18:51:54 10° NNW 18:56:23 81° WSW 19:00:40 10° SSE
Cosmos 332 Rocket 3.8 18:53:01 10° S 18:57:48 60° ESE 18:59:46 34° NE
ALOS 3.5 18:55:33 10° S 19:00:00 44° W 19:04:28 10° NNW
FENGYUN 3A 4.5 18:55:58 10° S 19:01:09 51° W 19:06:22 10° NNW
Cosmos 1743 Rocket 3.4 18:57:45 10° S 19:02:07 83° E 19:05:04 20° N
ASTRO E2 4.1 19:01:25 10° SW 19:04:50 27° S 19:05:23 26° SSE
Cosmos 1241 Rocket 4.4 18:59:46 10° NNW 19:05:55 60° ENE 19:09:10 29° SE
Cosmos 1328 Rocket 3.8 19:04:51 10° NNW 19:09:12 70° W 19:13:30 10° S
Thor Agena Rocket 3.5 19:07:19 33° NE 19:09:36 61° ESE 19:14:44 10° S
Meteor 1-27 4.3 19:04:25 10° NNW 19:10:09 79° W 19:15:55 10° S
Cosmos 1346 Rocket 3.5 19:08:40 10° NNW 19:12:29 52° W 19:16:15 10° S
Cosmos 909 Rocket 4.0 19:09:31 10° NNW 19:16:13 60° ENE 19:18:04 43° ESE
H-2A R/B 3.5 19:16:07 10° S 19:19:48 51° W 19:23:34 10° NNW
Cosmos 1821 Rocket 3.8 19:13:46 10° N 19:19:55 69° E 19:26:07 10° SSE
COSMOS 2406 3.3 19:14:46 10° SSW 19:20:30 75° WNW 19:23:40 28° NNE
Cosmos 1535 Rocket 4.4 19:14:34 10° N 19:20:38 59° E 19:26:38 10° SSE
Meteor 2-15 Rocket 4.3 19:16:57 10° S 19:23:01 71° E 19:26:48 24° NNE
TIMED 4.4 19:19:24 10° NNW 19:23:37 82° NW 19:23:37 82° NW
Nadezhda 3 Rocket 4.4 19:23:21 10° SSW 19:29:36 65° W 19:35:57 10° N
Cosmos 1455 3.3 19:31:02 10° NNW 19:34:43 43° W 19:38:20 10° SSW
CZ-4C R/B 3.7 19:34:18 10° S 19:35:51 19° S 19:35:51 19° S
Cosmos 371 Rocket 3.9 19:39:02 10° SW 19:43:43 52° WNW 19:44:15 49° NW
Cosmos 1151 Rocket 4.2 19:42:59 10° NNW 19:47:06 41° W 19:51:13 10° SSW
Cosmos 2208 Rocket 4.3 19:46:22 10° SSW 19:51:09 65° WSW 19:51:09 65° WSW
GEOS 3 Rocket 4.1 19:59:26 61° W 19:59:26 61° W 20:04:12 10° NW
Cosmos 1934 Rocket 4.0 19:53:19 10° N 19:59:41 79° W 20:06:03 10° S
